Regional Weather Roundup
Issued by NWS Little Rock, AR

Home | Current Version | Previous Version | Graphics & Text | Print | Product List | Glossary On
Versions: 1 2 3 4 5 6 7 8 9 10 11 12 13 14 15 16 17 18 19 20 21 22 23 24 25 26 27 28 29 30 31 32 33
000
ASUS44 KLZK 270605
RWRLZK

WEATHER ROUNDUP FOR ARKANSAS
NATIONAL WEATHER SERVICE LITTLE ROCK AR
100 AM CDT SAT MAY 27 2017

NOTE: "FAIR" INDICATES FEW OR NO CLOUDS BELOW 12,000 FEET WITH NO
SIGNIFICANT WEATHER AND/OR OBSTRUCTIONS TO VISIBILITY.

ARZ001-003-010-029-270700-
NORTHWEST ARKANSAS

CITY           SKY/WX    TMP DP  RH WIND       PRES   REMARKS
FAYETTEVILLE   PTCLDY    75  73  93 S3        29.84R
6HR MIN TEMP:  74; 6HR MAX TEMP:  81;

FORT SMITH     PTCLDY    78  71  79 NE3       29.81S
6HR MIN TEMP:  77; 6HR MAX TEMP:  87;

HARRISON       CLOUDY    73  71  93 S6        29.84F
6HR MIN TEMP:  72; 6HR MAX TEMP:  81;

BENTONVILLE    CLOUDY    75  70  83 S5        29.85S
6HR MIN TEMP:  75; 6HR MAX TEMP:  84;

ROGERS         CLOUDY    75  66  73 SE5       29.85R
6HR MIN TEMP:  75; 6HR MAX TEMP:  83;

SILOAM SPGS    CLOUDY    75  68  78 CALM      29.83R
6HR MIN TEMP:  75; 6HR MAX TEMP:  82;

HIGHFILL       CLOUDY    75  72  90 CALM      29.84S
6HR MIN TEMP:  75; 6HR MAX TEMP:  81;

$$

ARZ004-005-016-270700-
NORTH CENTRAL ARKANSAS

CITY           SKY/WX    TMP DP  RH WIND       PRES   REMARKS
BATESVILLE     PTCLDY    75  70  83 S7        29.86F
6HR MIN TEMP:  75; 6HR MAX TEMP:  79;

FLIPPIN        MOCLDY    73  66  78 E3        29.81F
6HR MIN TEMP:  73; 6HR MAX TEMP:  81;

MTN HOME       CLOUDY    72  70  93 SE5       29.84F
6HR MIN TEMP:  72; 6HR MAX TEMP:  78;

$$

ARZ040-041-270700-
WEST CENTRAL ARKANSAS

CITY           SKY/WX    TMP DP  RH WIND       PRES   REMARKS
MENA           MOCLDY    81  79  94 CALM      29.87F HX  89
MOUNT IDA      PTCLDY    78  72  81 CALM      29.85F
6HR MIN TEMP:  77; 6HR MAX TEMP:  82;

$$

ARZ009-017-025-026-028-270700-
NORTHEAST ARKANSAS

CITY           SKY/WX    TMP DP  RH WIND       PRES   REMARKS
JONESBORO      MOCLDY    77  69  76 SW9       29.86F
6HR MIN TEMP:  77; 6HR MAX TEMP:  81;

NEWPORT        PTCLDY    75  71  87 S9        29.86S
6HR MIN TEMP:  75; 6HR MAX TEMP:  79;

WALNUT RIDGE   CLEAR     73  66  78 CALM      29.87R
6HR MIN TEMP:  73; 6HR MAX TEMP:  79;

BLYTHEVILLE    PTCLDY    76  70  82 SW8       29.88S
6HR MIN TEMP:  75; 6HR MAX TEMP:  81;

$$

ARZ022-023-033-042-044-270700-
CENTRAL ARKANSAS

CITY           SKY/WX    TMP DP  RH WIND       PRES   REMARKS
LITTLE ROCK    MOCLDY    75  73  93 S7        29.87S
6HR MIN TEMP:  74; 6HR MAX TEMP:  80;

N LITTLE ROCK    N/A     76  72  88 S6        29.86F
6HR MIN TEMP:  76; 6HR MAX TEMP:  81;

JACKSONVILLE   CLOUDY    76  73  89 S6        29.86F
6HR MIN TEMP:  76; 6HR MAX TEMP:  82;

CONWAY           N/A     77  73  88 S8        29.83F
SEARCY         CLOUDY    75  73  93 S7        29.88S
6HR MIN TEMP:  74; 6HR MAX TEMP:  80;

HOT SPRINGS    CLOUDY    79  74  84 S3        29.87F
6HR MIN TEMP:  79; 6HR MAX TEMP:  83;

RUSSELLVILLE   PTCLDY    75  71  87 CALM      29.81F
6HR MIN TEMP:  74; 6HR MAX TEMP:  84;

CLINTON        MOCLDY    70  70 100 CALM      29.85F FOG
$$

ARZ036-270700-
EAST ARKANSAS

CITY           SKY/WX    TMP DP  RH WIND       PRES   REMARKS
WEST MEMPHIS   CLOUDY    77  70  79 S10       29.88F
6HR MIN TEMP:  77; 6HR MAX TEMP:  81;

$$

ARZ050-053-066-070-073-270700-
SOUTHWEST ARKANSAS

CITY           SKY/WX    TMP DP  RH WIND       PRES   REMARKS
ARKADELPHIA    FAIR      75  73  93 S3        29.88R
6HR MIN TEMP:  75; 6HR MAX TEMP:  82;

CAMDEN         MOCLDY    77  70  78 S8        29.89S
TEXARKANA      MOCLDY    77  75  93 S8        29.87S
6HR MIN TEMP:  77; 6HR MAX TEMP:  84;

EL DORADO      MOCLDY    74  72  93 S6        29.91R
6HR MIN TEMP:  74; 6HR MAX TEMP:  82;

DE QUEEN       CLOUDY    80  75  84 S6        29.84R HX  85
6HR MIN TEMP:  80; 6HR MAX TEMP:  85;

$$

ARZ056-057-069-270700-
SOUTHEAST ARKANSAS

CITY           SKY/WX    TMP DP  RH WIND       PRES   REMARKS
PINE BLUFF     CLOUDY    76  71  85 S9        29.90R
6HR MIN TEMP:  76; 6HR MAX TEMP:  81;

STUTTGART      CLOUDY    79  63  57 S10       29.90R
6HR MIN TEMP:  79; 6HR MAX TEMP:  81;

MONTICELLO     CLOUDY    77  71  82 S8        29.92R
6HR MIN TEMP:  77; 6HR MAX TEMP:  82;


$$






USA.gov is the U.S. government's official web portal to all federal, state and local government web resources and services.